PBO Station Position Time Series. Reference Frame : NAM14
Format Version,1.1.0
4-character ID,PDTN
Station name,PENDLETON
Begin Date, 2011-11-01
End Date, 2019-10-07
Release Date, 2019-10-08
Reference position, 45.6659467071 North Latitude, -118.7569285162 East Longitude, 394.44920 meters elevation,
Date, North (mm), East (mm), Vertical (mm), North Std. Deviation (mm), East Std. Deviation (mm),              Vertical Std. Deviation (mm), Quality,
2011-11-01,0.00, 0.00, 0.00, 2.27, 1.61, 7.21, repro,
2011-11-02,-0.71, -0.44, 2.97, 2.16, 1.54, 6.92, repro,
2011-11-03,-2.11, -0.96, 4.28, 2.28, 1.57, 7.23, repro,
2011-11-04,-1.24, -1.01, 9.74, 2.16, 1.51, 6.91, repro,
2011-11-05,0.57, -0.61, 11.35, 2.30, 1.62, 7.46, repro,
2011-11-06,0.11, -1.09, 8.56, 2.28, 1.58, 7.23, repro,
2011-11-07,0.59, -1.30, 5.40, 2.22, 1.54, 7.03, repro,
2011-11-08,-0.62, -0.45, -1.07, 2.30, 1.58, 7.24, repro,
2011-11-09,0.53, -0.76, -1.85, 2.20, 1.54, 6.96, repro,
2011-11-10,-0.65, -0.78, -7.91, 2.28, 1.60, 7.30, repro,
2011-11-11,-1.51, -1.17, 9.70, 2.21, 1.53, 6.96, repro,
2011-11-12,-0.69, -0.39, 10.09, 2.24, 1.56, 7.07, repro,
2011-11-13,-1.93, 0.25, 8.30, 2.27, 1.56, 7.06, repro,
2011-11-14,-1.50, 0.96, 17.02, 2.27, 1.57, 7.21, repro,
2011-11-15,0.00, -2.03, 7.19, 2.22, 1.56, 7.16, repro,
2011-11-16,0.55, -0.55, -2.33, 2.26, 1.58, 7.24, repro,
2011-11-17,-0.24, 0.04, 4.49, 2.23, 1.57, 7.20, repro,
2011-11-18,-0.79, -0.92, 9.39, 2.23, 1.56, 7.10, repro,
2011-11-19,0.72, -0.92, 6.09, 2.21, 1.54, 7.03, repro,
2011-11-20,-0.00, 0.04, 6.14, 2.19, 1.51, 6.91, repro,
2011-11-21,-0.77, 0.10, 5.39, 2.17, 1.51, 6.89, repro,
2011-11-22,-0.64, 1.50, 5.49, 2.16, 1.52, 6.94, repro,
2011-11-23,-2.02, 0.10, 7.10, 2.34, 1.57, 7.26, repro,
2011-11-24,-1.84, -2.42, 13.12, 2.15, 1.50, 6.81, repro,
2011-11-25,-1.67, -1.94, 11.82, 2.21, 1.52, 7.03, repro,
2011-11-26,-1.30, 0.10, 0.87, 2.17, 1.51, 6.89, repro,
2011-11-27,-1.01, -0.09, 8.88, 2.16, 1.52, 6.91, repro,
2011-11-28,-0.67, -0.03, 2.65, 2.21, 1.56, 7.05, repro,
2011-11-29,-1.31, -0.92, -0.87, 2.17, 1.54, 6.95, repro,
2011-11-30,-2.52, -0.51, 1.26, 2.28, 1.59, 7.31, repro,
2011-12-01,1.03, -0.55, -5.21, 2.15, 1.51, 6.85, repro,
2011-12-02,-0.35, 0.78, 4.48, 2.26, 1.59, 7.21, repro,
2011-12-03,-0.32, -1.52, -5.15, 2.23, 1.60, 7.14, repro,
2011-12-04,1.31, -0.40, -7.75, 2.18, 1.54, 6.99, repro,
2011-12-05,1.30, -0.40, -3.86, 2.18, 1.54, 6.97, repro,
2011-12-06,-1.25, -0.16, -1.03, 2.19, 1.54, 7.02, repro,
2011-12-07,-0.76, -0.14, 1.04, 2.19, 1.54, 7.06, repro,
2011-12-08,-0.11, 0.85, 2.60, 2.18, 1.53, 6.98, repro,
2011-12-09,-0.20, 0.47, -1.44, 2.17, 1.53, 6.95, repro,
2011-12-10,-0.64, 0.39, 0.20, 2.18, 1.54, 6.97, repro,
2011-12-11,-0.94, -0.62, 1.72, 2.17, 1.54, 6.97, repro,
2011-12-12,-1.12, -0.11, 1.95, 2.20, 1.55, 7.04, repro,
2011-12-13,-0.67, 0.57, 6.12, 2.19, 1.55, 7.05, repro,
2011-12-14,-0.47, -1.38, 4.93, 2.15, 1.50, 6.83, repro,
2011-12-15,-0.40, -0.23, -0.88, 2.24, 1.57, 7.09, repro,
2011-12-16,0.28, -0.96, -3.52, 2.19, 1.53, 6.95, repro,
2011-12-17,-1.38, 0.15, 0.22, 2.11, 1.48, 6.79, repro,
2011-12-18,-1.33, -0.09, 10.94, 2.13, 1.49, 6.84, repro,
2011-12-19,-1.40, -0.72, 3.20, 2.20, 1.55, 7.06, repro,
2011-12-20,-1.51, -0.03, 4.16, 2.17, 1.55, 6.98, repro,
2011-12-21,-0.59, -0.33, -4.07, 2.11, 1.49, 6.76, repro,
2011-12-22,-0.40, -0.27, -4.16, 2.11, 1.48, 6.75, repro,
2011-12-23,-0.52, 0.81, 2.04, 2.16, 1.52, 6.88, repro,
2011-12-24,-0.70, -0.05, -1.60, 2.18, 1.56, 6.97, repro,
2011-12-25,-0.96, 0.68, 1.74, 2.14, 1.51, 6.79, repro,
2011-12-26,-1.10, 0.30, 1.27, 2.14, 1.51, 6.80, repro,
2011-12-27,-1.08, 0.87, 2.64, 2.16, 1.52, 6.90, repro,
2011-12-28,-1.06, 1.39, 8.30, 2.16, 1.52, 6.89, repro,
2011-12-29,-0.12, 2.13, 9.85, 2.17, 1.52, 6.90, repro,
2011-12-30,0.49, 0.51, 10.74, 2.15, 1.50, 6.81, repro,
2011-12-31,0.24, 0.37, 6.46, 2.12, 1.48, 6.72, repro,
2012-01-01,-0.57, 0.71, -1.26, 2.12, 1.48, 6.75, repro,
2012-01-02,-0.43, 0.03, 4.05, 2.11, 1.47, 6.73, repro,
2012-01-03,-1.68, -0.28, 2.77, 2.15, 1.51, 6.82, repro,
2012-01-04,0.19, 0.27, -0.56, 2.14, 1.51, 6.81, repro,
2012-01-05,-1.43, -0.06, 8.29, 2.16, 1.51, 6.85, repro,
2012-01-06,-0.24, -0.07, 7.93, 2.11, 1.47, 6.69, repro,
2012-01-07,-0.51, -0.24, 5.98, 2.14, 1.50, 6.80, repro,
2012-01-08,-1.01, -0.29, 7.13, 2.11, 1.47, 6.71, repro,
2012-01-09,-1.64, 0.38, 5.77, 2.10, 1.47, 6.71, repro,
2012-01-10,-0.10, 0.44, 6.89, 2.11, 1.47, 6.72, repro,
2012-01-11,-1.07, 0.13, 1.58, 2.14, 1.49, 6.83, repro,
2012-01-12,0.31, -0.04, 1.55, 2.12, 1.47, 6.72, repro,
2012-01-13,-1.47, -0.24, 1.79, 2.11, 1.47, 6.70, repro,
2012-01-14,-0.65, 0.68, 5.50, 2.15, 1.50, 6.85, repro,
2012-01-15,-0.32, 0.89, 8.67, 2.11, 1.48, 6.76, repro,
2012-01-16,-0.75, -0.65, 5.58, 2.11, 1.47, 6.75, repro,
2012-01-17,-1.23, -0.97, 15.37, 2.10, 1.47, 6.69, repro,
2012-01-18,1.33, -3.15, 14.12, 2.12, 1.48, 6.76, repro,
2012-01-19,-1.88, -0.93, 11.82, 2.16, 1.50, 6.92, repro,
2012-01-20,-2.94, -1.66, 0.38, 2.11, 1.48, 6.79, repro,
2012-01-21,-1.56, 0.74, 19.23, 2.12, 1.48, 6.81, repro,
2012-01-22,-1.28, 0.03, 6.09, 2.14, 1.51, 6.91, repro,
2012-01-23,0.41, -0.34, 8.65, 2.14, 1.50, 6.83, repro,
2012-01-24,-0.33, 0.03, 8.03, 2.12, 1.48, 6.75, repro,
2012-01-25,-0.43, 0.06, 10.42, 2.13, 1.50, 6.79, repro,
2012-01-26,2.17, 0.10, -0.65, 2.24, 1.59, 7.19, repro,
2012-01-27,0.80, -0.49, 2.60, 2.13, 1.50, 6.81, repro,
2012-01-28,-2.24, -0.48, 0.11, 2.11, 1.47, 6.75, repro,
2012-01-29,-0.49, 0.54, 1.66, 2.13, 1.49, 6.82, repro,
2012-01-30,-2.08, 0.43, 12.22, 2.09, 1.47, 6.67, repro,
2012-01-31,-1.61, 0.85, 10.02, 2.10, 1.48, 6.75, repro,
2012-02-01,-1.35, -0.05, 12.10, 2.11, 1.48, 6.75, repro,
2012-02-02,-0.19, -0.24, 1.43, 2.17, 1.54, 7.01, repro,
2012-02-03,-1.22, 0.10, -3.02, 2.14, 1.49, 6.80, repro,
2012-02-04,0.08, 0.65, -2.16, 2.15, 1.53, 6.88, repro,
2012-02-05,0.38, 0.38, -2.07, 2.20, 1.60, 7.18, repro,
2012-02-06,0.61, -0.23, -0.78, 2.12, 1.51, 6.81, repro,
2012-02-07,0.04, 0.35, 1.90, 2.23, 1.55, 7.10, repro,
2012-02-08,-0.04, -0.79, -2.58, 2.13, 1.49, 6.79, repro,
2012-02-09,0.10, -0.46, -7.46, 2.17, 1.52, 6.87, repro,
2012-02-10,0.79, -0.01, 0.74, 2.13, 1.50, 6.79, repro,
2012-02-11,-0.41, 0.54, 5.02, 2.14, 1.50, 6.81, repro,
2012-02-12,-0.46, -0.38, 3.77, 2.13, 1.50, 6.77, repro,
2012-02-13,0.62, 0.33, 9.89, 2.12, 1.50, 6.77, repro,
2012-02-14,-0.47, -1.16, 8.51, 2.12, 1.48, 6.72, repro,
2012-02-15,0.74, -0.03, 4.42, 2.14, 1.49, 6.75, repro,
2012-02-16,0.03, 0.58, -2.54, 2.13, 1.49, 6.76, repro,
2012-02-17,-1.19, 0.96, 2.42, 2.13, 1.49, 6.74, repro,
2012-02-18,-0.84, 0.41, 3.77, 2.12, 1.50, 6.79, repro,
2012-02-19,0.13, -0.40, 5.05, 2.15, 1.51, 6.86, repro,
2012-02-20,0.35, -1.08, 5.04, 2.14, 1.50, 6.81, repro,
2012-02-21,-0.12, 0.41, 5.34, 2.18, 1.53, 6.90, repro,
2012-02-22,-1.20, -1.40, 5.61, 2.20, 1.54, 7.00, repro,
2012-02-23,-0.20, -0.06, 4.47, 2.16, 1.51, 6.85, repro,
2012-02-24,-0.64, -0.22, -0.68, 2.10, 1.47, 6.73, repro,
2012-02-25,1.06, -1.15, 3.87, 2.15, 1.49, 6.89, repro,
2012-02-26,-0.28, 0.39, 1.40, 2.14, 1.49, 6.81, repro,
2012-02-27,0.49, 0.10, -0.49, 2.15, 1.48, 6.75, repro,
2012-02-28,0.70, -0.37, 3.97, 2.15, 1.49, 6.77, repro,
2012-02-29,-0.29, 1.90, 9.05, 2.12, 1.48, 6.75, repro,
2012-03-01,-0.49, -0.51, 4.04, 2.14, 1.50, 6.83, repro,
2012-03-02,-0.48, 0.15, 0.76, 2.18, 1.53, 6.98, repro,
2012-03-03,-1.50, 0.02, 0.96, 2.12, 1.47, 6.75, repro,
2012-03-04,-0.74, 0.73, -4.58, 2.11, 1.47, 6.70, repro,
2012-03-05,-2.33, 0.28, 3.51, 2.14, 1.47, 6.79, repro,
2012-03-06,-1.14, 0.80, 8.36, 2.21, 1.53, 6.96, repro,
2012-03-07,0.24, -0.50, 2.19, 2.15, 1.50, 6.85, repro,
2012-03-08,-0.12, 0.15, -4.04, 2.16, 1.49, 6.80, repro,
2012-03-09,-0.57, 0.65, -7.30, 2.17, 1.49, 6.77, repro,
2012-03-10,-1.56, 0.60, 4.40, 2.16, 1.49, 6.79, repro,
2012-03-11,-2.22, -0.11, 7.69, 2.18, 1.51, 6.89, repro,
2012-03-12,0.07, 0.65, 9.15, 2.15, 1.51, 6.84, repro,
2012-03-13,-0.92, 0.62, 14.04, 2.14, 1.49, 6.79, repro,
2012-03-14,0.44, -0.99, 6.49, 2.16, 1.49, 6.84, repro,
2012-03-15,0.81, 1.80, 1.59, 2.23, 1.51, 6.92, repro,
2012-03-16,-1.16, 0.48, 9.84, 2.13, 1.46, 6.71, repro,
2012-03-17,-1.24, -0.27, 1.63, 2.17, 1.50, 6.85, repro,
2012-03-18,-0.82, -0.29, 5.47, 2.20, 1.51, 6.86, repro,
2012-03-19,-0.13, -0.65, 4.50, 2.14, 1.49, 6.77, repro,
2012-03-20,-1.06, -0.96, 3.84, 2.12, 1.45, 6.67, repro,
2012-03-21,-0.64, -0.51, -3.22, 2.14, 1.48, 6.74, repro,
2012-03-22,-1.36, -0.23, -3.22, 2.16, 1.49, 6.79, repro,
2012-03-23,0.94, 0.09, -6.65, 2.16, 1.54, 6.92, repro,
2012-03-24,-0.36, -0.88, -8.77, 2.14, 1.49, 6.77, repro,
2012-03-25,0.78, -0.96, 1.43, 2.14, 1.47, 6.76, repro,
2012-03-26,-0.29, -0.89, 8.10, 2.13, 1.46, 6.72, repro,
2012-03-27,-3.70, -1.38, 1.06, 2.13, 1.49, 6.73, repro,
2012-03-28,-2.37, 0.39, -0.62, 2.13, 1.49, 6.73, repro,
2012-03-29,-0.01, 0.02, -0.66, 2.13, 1.50, 6.78, repro,
2012-03-30,0.34, 0.64, 9.53, 2.19, 1.52, 6.92, repro,
2012-03-31,1.46, -0.60, 7.58, 2.11, 1.47, 6.72, repro,
2012-04-01,-1.26, 0.08, 4.12, 2.09, 1.46, 6.66, repro,
2012-04-02,-0.78, -0.53, -5.14, 2.08, 1.46, 6.64, repro,
2012-04-03,-0.55, 0.91, -0.48, 2.09, 1.47, 6.70, repro,
2012-04-04,-0.45, -0.99, -2.49, 2.10, 1.47, 6.70, repro,
2012-04-05,-0.55, -0.24, -4.80, 2.12, 1.47, 6.75, repro,
2012-04-06,0.26, 0.08, -2.83, 2.08, 1.45, 6.61, repro,
2012-04-07,-1.40, -0.45, -5.31, 2.07, 1.45, 6.59, repro,
2012-04-08,-0.46, 0.06, -4.31, 2.08, 1.45, 6.64, repro,
2012-04-09,-0.40, -0.03, -5.85, 2.14, 1.50, 6.88, repro,
2012-04-10,0.09, -0.12, -5.97, 2.11, 1.47, 6.76, repro,
2012-04-11,-0.97, -0.83, 8.14, 2.09, 1.46, 6.67, repro,
2012-04-12,-1.96, -0.20, 1.07, 2.13, 1.51, 6.85, repro,
2012-04-13,-2.23, -0.04, -2.35, 2.09, 1.46, 6.70, repro,
2012-04-14,-0.68, -0.57, 0.37, 2.07, 1.46, 6.65, repro,
2012-04-15,-0.11, -0.53, -2.50, 2.12, 1.48, 6.81, repro,
2012-04-16,-1.19, -0.40, -3.85, 2.10, 1.46, 6.72, repro,
2012-04-17,-3.69, -0.99, -0.29, 2.09, 1.47, 6.68, repro,
2012-04-18,-0.33, 0.10, -1.55, 2.10, 1.47, 6.70, repro,
2012-04-19,-0.04, -0.16, -4.60, 2.10, 1.46, 6.72, repro,
2012-04-20,-1.45, 0.33, -7.99, 2.09, 1.46, 6.74, repro,
2012-04-21,0.33, -0.93, -8.91, 2.10, 1.46, 6.72, repro,
2012-04-22,-2.03, -0.19, -8.83, 2.11, 1.47, 6.73, repro,
2012-04-23,-1.32, 0.40, -1.87, 2.11, 1.47, 6.79, repro,
2012-04-24,-1.40, 0.89, 4.28, 2.18, 1.52, 6.98, repro,
2012-04-25,-0.93, 0.17, -4.02, 2.13, 1.51, 6.87, repro,
2012-04-26,-0.69, -0.61, -1.98, 2.10, 1.46, 6.68, repro,
2012-04-27,-1.89, -0.51, -8.03, 2.19, 1.47, 6.80, repro,
2012-04-28,-1.65, -0.42, -4.54, 2.09, 1.45, 6.62, repro,
2012-04-29,-1.26, -0.47, -8.65, 2.10, 1.46, 6.68, repro,
2012-04-30,-2.33, 1.48, 2.89, 2.12, 1.47, 6.79, repro,
2012-05-01,-1.69, -0.25, 2.38, 2.13, 1.51, 6.90, repro,
2012-05-02,-1.89, -0.59, 0.48, 2.14, 1.51, 6.87, repro,
2012-05-03,-1.95, -0.19, -1.75, 2.20, 1.54, 6.91, repro,
2012-05-04,-0.78, 0.79, -5.50, 2.11, 1.46, 6.71, repro,
2012-05-05,-0.19, 0.46, -4.82, 2.09, 1.46, 6.66, repro,
2012-05-06,-1.65, 0.94, -8.77, 2.12, 1.49, 6.83, repro,
2012-05-07,-1.82, 0.04, -12.71, 2.14, 1.50, 6.80, repro,
2012-05-08,-0.64, -0.20, -9.31, 2.09, 1.46, 6.66, repro,
2012-05-09,-0.21, -0.10, -1.30, 2.11, 1.47, 6.73, repro,
2012-05-10,0.29, -1.10, -3.02, 2.11, 1.46, 6.70, repro,
2012-05-11,0.39, -0.10, -7.06, 2.08, 1.45, 6.65, repro,
2012-05-12,-0.87, -0.10, -5.84, 2.08, 1.46, 6.70, repro,
2012-05-13,-0.94, 0.81, -10.70, 2.30, 1.67, 7.43, repro,
2012-05-14,-0.22, 1.03, -1.85, 2.10, 1.46, 6.68, repro,
2012-05-15,-0.81, 0.01, -1.20, 2.09, 1.46, 6.67, repro,
2012-05-16,-1.53, -0.16, 2.89, 2.10, 1.45, 6.67, repro,
2012-05-17,-1.40, 0.23, -0.87, 2.09, 1.46, 6.69, repro,
2012-05-18,-0.74, -0.03, -2.23, 2.15, 1.51, 6.87, repro,
2012-05-19,-0.53, -0.12, -0.09, 2.13, 1.50, 6.82, repro,
2012-05-20,-0.34, 0.17, 4.82, 2.13, 1.49, 6.78, repro,
2012-05-21,-2.11, 0.08, 0.40, 2.13, 1.50, 6.82, repro,
2012-05-22,-1.59, 0.25, -5.31, 2.12, 1.49, 6.76, repro,
2012-05-23,-0.71, -0.79, 5.39, 2.12, 1.49, 6.78, repro,
2012-05-24,-0.94, -1.08, 4.29, 2.11, 1.47, 6.76, repro,
2012-05-25,0.04, -0.09, 3.69, 2.15, 1.51, 6.89, repro,
2012-05-26,-0.26, -0.83, 2.49, 2.14, 1.50, 6.81, repro,
2012-05-27,-1.02, 0.00, 7.48, 2.14, 1.51, 6.82, repro,
2012-05-28,-1.68, 0.06, 7.58, 2.09, 1.46, 6.68, repro,
2012-05-29,-1.57, -1.22, -0.20, 2.10, 1.46, 6.69, repro,
2012-05-30,-2.09, -0.01, 5.40, 2.09, 1.46, 6.68, repro,
2012-05-31,-0.23, -0.16, 2.97, 2.08, 1.46, 6.68, repro,
2012-06-01,0.49, -1.08, 4.80, 2.10, 1.47, 6.73, repro,
2012-06-02,1.37, -0.43, 7.79, 2.15, 1.49, 6.79, repro,
2012-06-03,-2.80, -0.69, 3.79, 2.09, 1.46, 6.69, repro,
2012-06-04,-0.35, -0.76, 5.92, 2.10, 1.47, 6.71, repro,
2012-06-05,0.07, -0.35, 4.44, 2.07, 1.45, 6.61, repro,
2012-06-06,-0.38, -0.35, 0.55, 2.08, 1.46, 6.67, repro,
2012-06-07,-1.19, -0.23, -0.09, 2.09, 1.45, 6.64, repro,
2012-06-08,0.62, 0.40, 3.27, 2.07, 1.46, 6.64, repro,
2012-06-09,-1.32, -0.92, 3.23, 2.10, 1.46, 6.68, repro,
2012-06-10,0.62, -0.86, 1.60, 2.10, 1.47, 6.70, repro,
2012-06-11,-0.99, -0.29, -6.58, 2.08, 1.45, 6.61, repro,
2012-06-12,-0.33, -0.30, 2.74, 2.11, 1.46, 6.68, repro,
2012-06-13,0.23, 1.99, 6.03, 2.10, 1.46, 6.69, repro,
2012-06-14,-0.58, -0.47, 5.46, 2.09, 1.46, 6.65, repro,
2012-06-15,-0.20, -0.87, -1.68, 2.09, 1.46, 6.68, repro,
2012-06-16,0.41, -1.47, 2.39, 2.11, 1.46, 6.70, repro,
2012-06-17,0.49, 0.16, 12.40, 2.14, 1.48, 6.81, repro,
2012-06-18,-1.07, 0.03, 18.53, 2.09, 1.45, 6.66, repro,
2012-06-19,-0.31, -1.27, 4.77, 2.11, 1.49, 6.73, repro,
2012-06-20,-0.64, -1.82, 4.19, 2.09, 1.45, 6.65, repro,
2012-06-21,-0.69, -0.09, 0.79, 2.08, 1.45, 6.61, repro,
2012-06-22,-0.39, -0.96, -0.33, 2.11, 1.47, 6.71, repro,
2012-06-23,-0.63, -0.24, 1.50, 2.37, 1.68, 7.66, repro,
2012-06-24,-0.91, -1.54, 6.12, 2.10, 1.45, 6.62, repro,
2012-06-25,-0.40, -0.75, 7.04, 2.11, 1.47, 6.73, repro,
2012-06-26,-1.76, -0.48, 3.92, 2.10, 1.47, 6.70, repro,
2012-06-27,-0.87, -1.47, -1.35, 2.08, 1.46, 6.62, repro,
2012-06-28,-0.23, -0.90, 8.66, 2.09, 1.46, 6.68, repro,
2012-06-29,-0.83, -2.15, 3.72, 2.10, 1.45, 6.65, repro,
2012-06-30,-1.28, -1.71, 2.36, 2.10, 1.45, 6.63, repro,
2012-07-01,0.49, -1.23, 5.09, 2.13, 1.48, 6.73, repro,
2012-07-02,-0.61, -0.63, 10.39, 2.11, 1.45, 6.66, repro,
2012-07-03,-1.68, -0.74, 1.41, 2.12, 1.47, 6.70, repro,
2012-07-04,-2.07, -0.49, 8.47, 2.11, 1.46, 6.70, repro,
2012-07-05,1.02, -1.73, 3.68, 2.12, 1.49, 6.82, repro,
2012-07-06,-0.25, -2.33, -0.74, 2.12, 1.49, 6.81, repro,
2012-07-07,-0.14, -1.57, -0.80, 2.09, 1.46, 6.63, repro,
2012-07-08,-1.65, -1.41, 8.33, 2.13, 1.47, 6.74, repro,
2012-07-09,-2.45, -1.39, 3.67, 2.19, 1.50, 6.92, repro,
2012-07-10,-5.03, -0.13, 18.73, 2.42, 1.70, 7.48, repro,
2012-07-11,-0.43, -0.02, 4.17, 2.10, 1.46, 6.65, repro,
2012-07-12,-0.62, -2.33, 9.00, 2.08, 1.46, 6.64, repro,
2012-07-13,-1.65, -0.91, 9.10, 2.09, 1.46, 6.63, repro,
2012-07-14,-0.27, -1.20, 7.78, 2.14, 1.49, 6.84, repro,
2012-07-15,-1.68, -0.52, 12.83, 2.13, 1.48, 6.78, repro,
2012-07-16,-0.06, -1.56, 8.24, 2.28, 1.62, 7.31, repro,
2012-07-17,-0.72, -2.53, 6.97, 2.21, 1.47, 6.84, repro,
2012-07-18,0.63, -1.23, 5.25, 2.09, 1.46, 6.66, repro,
2012-07-19,1.07, -0.70, 5.66, 2.12, 1.47, 6.72, repro,
2012-07-20,-2.08, -1.86, 12.52, 2.14, 1.52, 6.94, repro,
2012-07-21,-0.80, -0.48, 7.76, 2.08, 1.45, 6.63, repro,
2012-07-22,-0.69, 0.48, 3.98, 2.08, 1.45, 6.62, repro,
2012-07-23,0.92, -2.22, 1.35, 2.08, 1.45, 6.60, repro,
2012-07-24,-0.60, 0.08, 3.01, 2.11, 1.47, 6.69, repro,
2012-07-25,-0.36, -1.28, 8.73, 2.09, 1.46, 6.67, repro,
2012-07-26,-1.03, -1.01, 11.76, 2.08, 1.45, 6.62, repro,
2012-07-27,-1.59, -1.83, 10.94, 2.10, 1.46, 6.69, repro,
2012-07-28,-0.47, -1.88, 8.66, 2.11, 1.46, 6.70, repro,
2012-07-29,1.67, 0.10, 5.01, 2.10, 1.46, 6.68, repro,
2012-07-30,0.72, -0.38, 3.92, 2.11, 1.47, 6.72, repro,
2012-07-31,-2.25, -0.98, 18.85, 2.28, 1.62, 7.51, repro,
2012-08-01,-0.52, -3.82, 9.23, 2.09, 1.45, 6.64, repro,
2012-08-02,-1.60, -1.39, 5.93, 2.10, 1.45, 6.67, repro,
2012-08-03,0.41, -0.62, 9.73, 2.15, 1.47, 6.74, repro,
2012-08-04,-0.96, -1.05, 7.36, 2.12, 1.47, 6.73, repro,
2012-08-05,-0.09, -0.88, 8.49, 2.10, 1.45, 6.66, repro,
2012-08-06,-1.23, -1.99, 7.60, 2.09, 1.45, 6.62, repro,
2012-08-07,-1.73, -1.91, 13.60, 2.08, 1.45, 6.63, repro,
2012-08-08,-0.23, -1.48, 9.16, 2.15, 1.49, 6.90, repro,
2012-08-09,0.14, -0.93, -0.11, 2.10, 1.46, 6.69, repro,
2012-08-10,0.61, -1.25, 4.21, 2.10, 1.45, 6.65, repro,
2012-08-11,-1.15, -1.65, 9.45, 2.10, 1.44, 6.60, repro,
2012-08-12,-0.97, -2.28, 8.16, 2.07, 1.44, 6.56, repro,
2012-08-13,-0.90, -1.52, 8.50, 2.09, 1.45, 6.65, repro,
2012-08-14,-0.66, -1.61, 7.72, 2.11, 1.46, 6.68, repro,
2012-08-15,-0.36, -0.64, 9.20, 2.09, 1.46, 6.65, repro,
2012-08-16,0.11, 0.11, 7.76, 2.18, 1.50, 6.94, repro,
2012-08-17,-0.43, -0.24, 12.94, 2.10, 1.45, 6.64, repro,
2012-08-18,0.33, -0.46, 7.94, 2.07, 1.44, 6.56, repro,
2012-08-19,-0.37, -1.56, 10.76, 2.09, 1.46, 6.66, repro,
2012-08-20,-2.43, -0.60, 11.79, 2.10, 1.47, 6.71, repro,
2012-08-21,0.35, -0.82, 8.82, 2.13, 1.47, 6.74, repro,
2012-08-22,-1.35, -3.05, 7.65, 2.09, 1.45, 6.62, repro,
2012-08-23,-0.01, -1.19, 10.53, 2.08, 1.46, 6.64, repro,
2012-08-24,-0.73, -2.19, 11.63, 2.09, 1.46, 6.68, repro,
2012-08-25,-1.14, -0.24, 9.67, 2.09, 1.45, 6.61, repro,
2012-08-26,-1.36, -1.23, 18.18, 2.16, 1.50, 6.90, repro,
2012-08-27,-0.72, -0.44, 10.72, 2.10, 1.45, 6.65, repro,
2012-08-28,-0.54, -0.47, 12.50, 2.11, 1.49, 6.81, repro,
2012-08-29,-1.51, -1.18, 8.24, 2.11, 1.49, 6.82, repro,
2012-08-30,-0.58, -1.20, 14.25, 2.08, 1.45, 6.60, repro,
2012-08-31,-1.61, -1.28, 13.05, 2.10, 1.46, 6.66, repro,
2012-09-01,-1.14, -0.15, 6.66, 2.11, 1.46, 6.70, repro,
2012-09-02,-1.97, -0.35, 11.54, 2.11, 1.46, 6.69, repro,
2012-09-03,-1.16, -0.57, 10.92, 2.10, 1.46, 6.67, repro,
2012-09-04,-0.43, 0.60, 9.41, 2.15, 1.50, 6.84, repro,
2012-09-05,-1.80, -1.11, 10.21, 2.10, 1.46, 6.66, repro,
2012-09-06,-0.44, -0.63, 11.82, 2.17, 1.53, 6.85, repro,
2012-09-07,-1.80, -0.08, 12.00, 2.11, 1.49, 6.73, repro,
2012-09-08,-1.69, -0.97, 12.59, 2.11, 1.46, 6.68, repro,
2012-09-09,1.46, 0.52, 11.08, 2.16, 1.50, 6.81, repro,
2012-09-10,-3.61, -0.89, 18.60, 2.13, 1.50, 6.80, repro,
2012-09-11,-2.14, -1.48, 13.47, 2.14, 1.50, 6.79, repro,
2012-09-12,-0.91, -1.29, 10.75, 2.12, 1.49, 6.72, repro,
2012-09-13,-2.11, -0.60, 3.57, 2.18, 1.53, 6.90, repro,
2012-09-14,-0.91, -0.07, 4.35, 2.15, 1.49, 6.78, repro,
2012-09-15,0.15, -0.53, 13.28, 2.12, 1.48, 6.77, repro,
2012-09-16,-1.02, -0.56, 8.65, 2.09, 1.46, 6.66, repro,
2012-09-17,-0.87, -0.39, 9.72, 2.11, 1.47, 6.71, repro,
2012-09-18,-0.30, -1.07, 12.96, 2.09, 1.45, 6.62, repro,
2012-09-19,-0.11, -0.65, 14.33, 2.08, 1.46, 6.62, repro,
2012-09-20,-0.05, 1.06, 12.56, 2.09, 1.46, 6.62, repro,
2012-09-21,0.33, -0.14, 13.25, 2.10, 1.46, 6.67, repro,
2012-09-22,0.15, 0.09, 10.81, 2.10, 1.46, 6.67, repro,
2012-09-23,0.18, -1.61, 11.99, 2.09, 1.45, 6.63, repro,
2012-09-24,-0.91, -1.25, 17.18, 2.14, 1.49, 6.74, repro,
2012-09-25,0.51, -1.51, 11.88, 2.12, 1.50, 6.76, repro,
2012-09-26,0.24, -1.34, 10.33, 2.10, 1.47, 6.71, repro,
2012-09-27,0.52, -0.07, 8.50, 2.13, 1.48, 6.75, repro,
2012-09-28,-0.29, -0.64, 13.32, 2.22, 1.58, 7.16, repro,
2012-09-29,-1.05, -2.09, 10.51, 2.10, 1.46, 6.68, repro,
2012-09-30,-0.33, -2.30, 11.11, 2.10, 1.47, 6.69, repro,
2012-10-01,0.29, -0.18, 9.94, 2.14, 1.48, 6.81, repro,
2012-10-02,-1.21, -1.87, 19.73, 2.10, 1.46, 6.66, repro,
2012-10-03,-1.06, -0.87, 9.76, 2.11, 1.46, 6.68, repro,
2012-10-04,-0.64, -1.18, 10.79, 2.11, 1.46, 6.68, repro,
2012-10-05,-0.26, -0.86, 6.88, 2.08, 1.47, 6.67, repro,
2012-10-06,-1.08, -0.54, 12.12, 2.09, 1.46, 6.62, repro,
2012-10-07,-0.49, -0.09, 12.27, 2.15, 1.52, 6.83, repro,
2012-10-08,-1.52, -0.64, 11.92, 2.13, 1.48, 6.71, repro,
2012-10-09,-1.60, -0.56, 12.23, 2.16, 1.49, 6.81, repro,
2012-10-10,0.28, -0.89, 7.97, 2.12, 1.49, 6.73, repro,
2012-10-11,-0.80, 0.14, 10.94, 2.12, 1.49, 6.73, repro,
2012-10-12,-0.90, -1.03, 16.26, 2.11, 1.48, 6.71, repro,
2012-10-13,-1.22, -0.96, 14.75, 2.11, 1.47, 6.68, repro,
2012-10-14,-2.58, -0.73, 13.36, 2.15, 1.48, 6.75, repro,
2012-10-15,0.36, -0.23, 12.24, 2.13, 1.49, 6.79, repro,
2012-10-16,2.41, -0.08, 12.30, 2.20, 1.56, 6.97, repro,
2012-10-17,-0.29, -0.34, 14.20, 2.11, 1.48, 6.70, repro,
2012-10-18,-0.58, -1.39, 5.38, 2.12, 1.47, 6.67, repro,
2012-10-19,0.11, -1.15, 11.75, 2.15, 1.49, 6.82, repro,
2012-10-20,-0.76, -0.31, 18.83, 2.14, 1.49, 6.78, repro,
2012-10-21,0.62, -1.34, 5.96, 2.14, 1.49, 6.75, repro,
2012-10-22,-0.51, -1.34, 6.95, 2.27, 1.56, 7.15, repro,
2012-10-23,-1.08, -2.10, 4.24, 2.13, 1.49, 6.76, repro,
2012-10-24,-0.30, -0.88, 8.31, 2.15, 1.49, 6.76, repro,
2012-10-25,-1.54, -0.45, 4.03, 2.15, 1.49, 6.80, repro,
2012-10-26,-0.54, -1.25, -2.57, 2.20, 1.52, 6.89, repro,
2012-10-27,-1.23, -0.85, 1.83, 2.13, 1.48, 6.73, repro,
2012-10-28,-2.60, -0.27, 1.03, 2.13, 1.49, 6.77, repro,
2012-10-29,-1.14, 0.20, 8.81, 2.15, 1.49, 6.78, repro,
2012-10-30,-0.62, -0.20, 7.53, 2.14, 1.49, 6.77, repro,
2012-10-31,-0.62, -1.76, 4.74, 2.19, 1.53, 6.93, repro,
2012-11-01,0.40, -1.87, 1.58, 2.18, 1.53, 6.88, repro,
2012-11-02,-0.25, -0.81, 1.59, 2.23, 1.57, 7.12, repro,
2012-11-03,-1.75, -0.53, -0.57, 2.21, 1.54, 7.04, repro,
2012-11-04,-1.82, -1.08, 1.55, 2.20, 1.53, 7.02, repro,
2012-11-05,-1.59, -0.59, -1.35, 2.31, 1.56, 7.24, repro,
2012-11-06,-1.33, -1.73, 2.03, 2.20, 1.53, 6.97, repro,
2012-11-07,-0.51, -1.04, 5.23, 2.17, 1.53, 6.93, repro,
2012-11-08,-0.75, -0.90, -0.69, 2.19, 1.54, 7.02, repro,
2012-11-09,-0.49, -1.19, 6.11, 2.16, 1.51, 6.85, repro,
2012-11-10,1.10, -0.81, 5.49, 2.16, 1.51, 6.84, repro,
2012-11-11,-0.15, -1.10, 5.85, 2.20, 1.53, 6.98, repro,
2012-11-12,-0.72, -1.83, 6.96, 2.18, 1.53, 6.95, repro,
2012-11-13,-0.43, -0.86, 0.33, 2.21, 1.56, 7.09, repro,
2012-11-14,-1.48, -1.32, -0.69, 2.12, 1.50, 6.76, repro,
2012-11-15,0.79, 0.07, -1.89, 2.15, 1.51, 6.82, repro,
2012-11-16,0.51, -0.02, 2.15, 2.22, 1.56, 7.09, repro,
2012-11-17,-1.03, -0.59, 7.09, 2.21, 1.55, 7.03, repro,
2012-11-18,-1.07, -0.61, -1.34, 2.26, 1.58, 7.22, repro,
2012-11-19,0.36, 0.71, 6.06, 2.17, 1.55, 6.91, repro,
2012-11-20,0.34, -0.03, 9.75, 2.23, 1.56, 7.04, repro,
2012-11-21,0.88, -0.36, 12.08, 2.18, 1.49, 6.89, repro,
2012-11-22,-1.41, -0.36, -0.71, 2.10, 1.46, 6.67, repro,
2012-11-23,-0.72, -0.25, -2.50, 2.11, 1.47, 6.74, repro,
2012-11-24,0.71, -0.64, 0.82, 2.13, 1.50, 6.84, repro,
2012-11-25,-0.06, -1.12, 4.63, 2.17, 1.54, 6.93, repro,
2012-11-26,-0.25, -0.84, -2.12, 2.16, 1.53, 6.83, repro,
2012-11-27,-0.56, 0.04, -0.91, 2.15, 1.50, 6.84, repro,
2012-11-28,-2.02, -0.78, 0.03, 2.21, 1.52, 6.97, repro,
2012-11-29,-2.07, -1.58, 8.48, 2.82, 2.12, 9.27, repro,
2012-11-30,-2.31, -0.13, 14.49, 2.77, 2.12, 9.02, repro,
2012-12-01,1.19, 1.38, 17.57, 2.75, 1.99, 8.65, repro,
2012-12-02,-0.39, 1.29, 17.46, 3.03, 2.25, 9.68, repro,
2012-12-03,-0.65, -1.33, 11.73, 3.09, 2.28, 9.94, repro,
2012-12-04,1.07, 2.24, 9.85, 2.88, 2.11, 9.34, repro,
2012-12-05,1.06, 0.13, 23.58, 3.16, 2.45, 10.69, repro,
2012-12-06,-0.71, -0.66, 6.34, 2.67, 2.09, 8.71, repro,
2012-12-07,-1.30, 0.08, 16.86, 2.60, 1.86, 8.39, repro,
2012-12-08,-0.62, 0.35, 5.52, 2.29, 1.61, 7.26, repro,
2012-12-09,-1.17, -0.64, -3.02, 2.30, 1.67, 7.43, repro,
2012-12-10,2.65, 0.76, 0.11, 2.57, 1.93, 8.39, repro,
2012-12-11,-0.40, 2.59, 18.35, 3.01, 2.30, 10.01, repro,
2012-12-12,1.56, 0.90, 16.76, 2.93, 2.41, 10.23, repro,
2012-12-13,-2.06, 0.20, 14.97, 3.24, 2.62, 11.27, repro,
2012-12-14,-1.60, 0.23, 6.63, 2.42, 1.69, 7.53, repro,
2012-12-15,-0.44, 1.64, 17.00, 2.31, 1.62, 7.39, repro,
2012-12-16,-1.30, 0.52, 14.08, 2.22, 1.55, 7.03, repro,
2012-12-17,-1.06, -0.70, 22.65, 2.21, 1.54, 7.01, repro,
2012-12-18,-1.70, 0.10, 12.65, 2.15, 1.51, 6.91, repro,
2012-12-19,-0.05, -0.32, 3.48, 2.14, 1.49, 6.75, repro,
2012-12-20,-2.95, 0.43, 5.62, 2.12, 1.49, 6.81, repro,
2012-12-21,0.18, 0.42, 7.68, 2.23, 1.61, 7.33, repro,
2012-12-22,-1.07, 0.95, 11.97, 2.14, 1.51, 6.85, repro,
2012-12-23,-0.86, -0.34, 9.99, 2.14, 1.51, 6.86, repro,
2012-12-24,-0.94, 1.09, 5.16, 2.26, 1.61, 7.28, repro,
2012-12-25,-0.49, 0.00, 4.53, 2.11, 1.49, 6.71, repro,